Location: Unspecified
(49.8670°N, 0.0000°E)
Time: 11:51:23
(UTC+00:00)

Transit 2A Rocket - Visible Passes

Search period start: 05 August 2020 00:00
Search period end: 15 August 2020 00:00
Orbit: 584 x 919 km, 66.7° (Epoch: 04 August)

Date Brightness Start Highest point End Pass type
(mag) Time Alt. Az. Time Alt. Az. Time Alt. Az.
08 Aug 7.8 04:01:46 10° SE 04:05:08 16° ESE 04:08:35 10° ENE visible
11 Aug 7.5 03:35:24 10° SSE 03:39:42 22° ESE 03:44:10 10° ENE visible
12 Aug 7.7 02:54:54 10° SE 02:57:35 13° E 03:00:20 10° ENE visible
13 Aug 6.3 03:51:09 10° S 03:56:39 44° ESE 04:02:26 10° NE visible
14 Aug 6.9 03:09:24 10° SSE 03:14:20 29° ESE 03:19:29 10° NE visible
